WeatherOLA & Area Weather Station Summaries and History

Weather history for Indianola, Kingston, Poulsbo, Bainbridge Island, Silverdale other area weather stations. Select a station for detailed historical weather information of any date and time in five minute intervals. Great for looking up the timing of interesting weather events that are closest to you.

Station Historical Data
Daily Summary for September 14, 2017 Units:  Metric    English   Both
« Previous Day
Next Day »
Daily Weekly Monthly Yearly Custom
  High: Low: Average:
Temperature: 23.1 °C 11.2 °C 16.4 °C
Dew Point: 10.8 °C 3.7 °C 7.8 °C
Humidity: 90% 34% 61%
Wind Speed: 19.3km/h 0.0km/h 2.5km/h
Wind Gust: 19.3km/h - -
Wind- - SW
Pressure: 1015.1 hPa 1011.4 hPa -
Precipitation: 0.0 mm    
Historical Graphs
 
 
Tabular Data for September 14, 2017
Time Temperature Dew Point Pressure Wind Wind Speed Wind Gust Humidity Rainfall Rate (Hourly) solar Conditions
00:01 14.2 °C 10.8 °C 1011.4 hPa Calm     80% 0.0 mm WeatherDisplay:10.37 W/m2 CLR
00:06 14.1 °C 10.7 °C 1011.4 hPa NNE 1.9 km/h   80% 0.0 mm WeatherDisplay:10.37 W/m2 CLR
00:11 13.8 °C 10.6 °C 1011.4 hPa Calm     81% 0.0 mm WeatherDisplay:10.37 W/m2 CLR
00:16 13.7 °C 10.7 °C 1011.7 hPa Calm     82% 0.0 mm WeatherDisplay:10.37 W/m2 CLR
00:21 13.6 °C 10.7 °C 1011.7 hPa Calm     83% 0.0 mm WeatherDisplay:10.37 W/m2 CLR
00:26 13.4 °C 10.6 °C 1011.7 hPa Calm     83% 0.0 mm WeatherDisplay:10.37 W/m2 CLR
00:31 13.3 °C 10.4 °C 1011.7 hPa Calm     83% 0.0 mm WeatherDisplay:10.37 W/m2 CLR
00:36 13.2 °C 10.3 °C 1011.7 hPa Calm     83% 0.0 mm WeatherDisplay:10.37 W/m2 CLR
00:41 13.1 °C 10.3 °C 1011.7 hPa Calm     83% 0.0 mm WeatherDisplay:10.37 W/m2 CLR
00:46 13.0 °C 10.3 °C 1011.7 hPa Calm     84% 0.0 mm WeatherDisplay:10.37 W/m2 CLR
00:52 12.9 °C 10.2 °C 1011.7 hPa Calm     84% 0.0 mm WeatherDisplay:10.37 W/m2 CLR
00:57 12.8 °C 10.4 °C 1011.7 hPa North 1.6 km/h 1.6 km/h 85% 0.0 mm WeatherDisplay:10.37 W/m2 CLR
01:02 12.8 °C 10.3 °C 1011.7 hPa North 1.9 km/h   85% 0.0 mm WeatherDisplay:10.37 W/m2 CLR
01:07 12.7 °C 10.3 °C 1011.7 hPa Calm     85% 0.0 mm WeatherDisplay:10.37 W/m2 CLR
01:12 12.6 °C 10.2 °C 1011.7 hPa Calm     85% 0.0 mm WeatherDisplay:10.37 W/m2 CLR
01:17 12.6 °C 10.1 °C 1011.7 hPa Calm     85% 0.0 mm WeatherDisplay:10.37 W/m2 CLR
01:22 12.4 °C 10.0 °C 1011.7 hPa Calm     85% 0.0 mm WeatherDisplay:10.37 W/m2 CLR
01:27 12.3 °C 10.1 °C 1011.7 hPa Calm     86% 0.0 mm WeatherDisplay:10.37 W/m2 CLR
01:32 12.2 °C 9.9 °C 1011.7 hPa Calm     86% 0.0 mm WeatherDisplay:10.37 W/m2 CLR
01:37 12.2 °C 9.9 °C 1011.7 hPa Calm     86% 0.0 mm WeatherDisplay:10.37 W/m2 CLR
01:42 12.1 °C 9.8 °C 1011.7 hPa Calm     86% 0.0 mm WeatherDisplay:10.37 W/m2 CLR
01:47 12.1 °C 9.8 °C 1011.7 hPa Calm     86% 0.0 mm WeatherDisplay:10.37 W/m2 CLR
01:52 12.0 °C 9.7 °C 1011.7 hPa Calm     86% 0.0 mm WeatherDisplay:10.37 W/m2 CLR
01:57 11.9 °C 9.8 °C 1011.7 hPa Calm     87% 0.0 mm WeatherDisplay:10.37 W/m2 CLR
02:02 11.8 °C 9.7 °C 1011.7 hPa Calm     87% 0.0 mm WeatherDisplay:10.37 W/m2 CLR
02:07 11.8 °C 9.7 °C 1011.7 hPa Calm     87% 0.0 mm WeatherDisplay:10.37 W/m2 CLR
02:12 11.8 °C 9.7 °C 1011.7 hPa Calm     87% 0.0 mm WeatherDisplay:10.37 W/m2 CLR
02:17 11.8 °C 9.7 °C 1011.7 hPa Calm     87% 0.0 mm WeatherDisplay:10.37 W/m2 CLR
02:22 11.9 °C 10.0 °C 1011.7 hPa Calm     88% 0.0 mm WeatherDisplay:10.37 W/m2 CLR
02:27 12.1 °C 9.9 °C 1011.7 hPa Calm     87% 0.0 mm WeatherDisplay:10.37 W/m2 CLR
02:32 12.1 °C 10.0 °C 1011.7 hPa Calm     87% 0.0 mm WeatherDisplay:10.37 W/m2 CLR
02:37 12.2 °C 10.1 °C 1011.7 hPa North 1.9 km/h   87% 0.0 mm WeatherDisplay:10.37 W/m2 CLR
02:42 12.3 °C 10.2 °C 1011.7 hPa Calm     87% 0.0 mm WeatherDisplay:10.37 W/m2 CLR
02:47 12.4 °C 10.3 °C 1011.7 hPa Calm     87% 0.0 mm WeatherDisplay:10.37 W/m2 CLR
02:52 12.4 °C 10.3 °C 1011.7 hPa Calm     87% 0.0 mm WeatherDisplay:10.37 W/m2 CLR
02:57 12.4 °C 10.3 °C 1011.7 hPa Calm     87% 0.0 mm WeatherDisplay:10.37 W/m2 CLR
03:02 12.5 °C 10.4 °C 1011.7 hPa Calm     87% 0.0 mm WeatherDisplay:10.37 W/m2 CLR
03:07 12.4 °C 10.3 °C 1011.7 hPa Calm     87% 0.0 mm WeatherDisplay:10.37 W/m2 CLR
03:12 12.4 °C 10.3 °C 1011.7 hPa Calm     87% 0.0 mm WeatherDisplay:10.37 W/m2 CLR
03:13 12.4 °C 10.3 °C 1011.7 hPa Calm     87% 0.0 mm WeatherDisplay:10.37 W/m2 CLR
03:18 12.4 °C 10.3 °C 1011.7 hPa Calm     87% 0.0 mm WeatherDisplay:10.37 W/m2 CLR
03:23 12.3 °C 10.4 °C 1011.7 hPa Calm     88% 0.0 mm WeatherDisplay:10.37 W/m2 CLR
03:28 12.3 °C 10.3 °C 1011.7 hPa Calm     88% 0.0 mm WeatherDisplay:10.37 W/m2 CLR
03:33 12.3 °C 10.3 °C 1011.7 hPa Calm     88% 0.0 mm WeatherDisplay:10.37 W/m2 CLR
03:38 12.2 °C 10.3 °C 1011.7 hPa Calm     88% 0.0 mm WeatherDisplay:10.37 W/m2 CLR
03:43 12.1 °C 10.2 °C 1012.1 hPa Calm     88% 0.0 mm WeatherDisplay:10.37 W/m2 CLR
03:48 12.1 °C 10.3 °C 1012.1 hPa Calm     89% 0.0 mm WeatherDisplay:10.37 W/m2 CLR
03:53 12.1 °C 10.3 °C 1012.1 hPa Calm     89% 0.0 mm WeatherDisplay:10.37 W/m2 CLR
03:58 12.1 °C 10.3 °C 1012.1 hPa Calm     89% 0.0 mm WeatherDisplay:10.37 W/m2 CLR
04:03 12.1 °C 10.3 °C 1012.1 hPa Calm     89% 0.0 mm WeatherDisplay:10.37 W/m2 CLR
04:08 12.1 °C 10.3 °C 1012.1 hPa Calm     89% 0.0 mm WeatherDisplay:10.37 W/m2 CLR
04:13 12.0 °C 10.2 °C 1012.1 hPa Calm     89% 0.0 mm WeatherDisplay:10.37 W/m2 CLR
04:18 11.9 °C 10.2 °C 1012.1 hPa Calm     89% 0.0 mm WeatherDisplay:10.37 W/m2 CLR
04:23 11.9 °C 10.1 °C 1012.1 hPa Calm     89% 0.0 mm WeatherDisplay:10.37 W/m2 CLR
04:28 11.8 °C 10.1 °C 1012.1 hPa Calm     89% 0.0 mm WeatherDisplay:10.37 W/m2 CLR
04:33 11.8 °C 10.0 °C 1012.1 hPa Calm     89% 0.0 mm WeatherDisplay:10.37 W/m2 CLR
04:38 11.7 °C 9.9 °C 1012.1 hPa Calm     89% 0.0 mm WeatherDisplay:10.37 W/m2 CLR
04:43 11.7 °C 9.9 °C 1012.1 hPa Calm     89% 0.0 mm WeatherDisplay:10.37 W/m2 CLR
04:48 11.6 °C 9.8 °C 1012.1 hPa Calm     89% 0.0 mm WeatherDisplay:10.37 W/m2 CLR
04:53 11.6 °C 9.8 °C 1012.1 hPa Calm     89% 0.0 mm WeatherDisplay:10.37 W/m2 CLR
04:58 11.5 °C 9.7 °C 1012.1 hPa Calm     89% 0.0 mm WeatherDisplay:10.37 W/m2 CLR
05:03 11.4 °C 9.7 °C 1012.1 hPa Calm     89% 0.0 mm WeatherDisplay:10.37 W/m2 CLR
05:08 11.4 °C 9.7 °C 1012.1 hPa Calm     89% 0.0 mm WeatherDisplay:10.37 W/m2 CLR
05:14 11.4 °C 9.7 °C 1012.1 hPa Calm     89% 0.0 mm WeatherDisplay:10.37 W/m2 CLR
05:19 11.3 °C 9.4 °C 1012.1 hPa Calm     88% 0.0 mm WeatherDisplay:10.37 W/m2 CLR
05:24 11.3 °C 9.4 °C 1012.1 hPa Calm     88% 0.0 mm WeatherDisplay:10.37 W/m2 CLR
05:29 11.3 °C 9.4 °C 1012.1 hPa Calm     88% 0.0 mm WeatherDisplay:10.37 W/m2 CLR
05:34 11.3 °C 9.4 °C 1012.1 hPa Calm     88% 0.0 mm WeatherDisplay:10.37 W/m2 CLR
05:39 11.3 °C 9.4 °C 1012.4 hPa Calm     88% 0.0 mm WeatherDisplay:10.37 W/m2 CLR
05:44 11.2 °C 9.3 °C 1012.4 hPa Calm     88% 0.0 mm WeatherDisplay:10.37 W/m2 CLR
05:49 11.3 °C 9.4 °C 1012.4 hPa Calm     88% 0.0 mm WeatherDisplay:10.37 W/m2 CLR
05:54 11.3 °C 9.4 °C 1012.4 hPa Calm     88% 0.0 mm WeatherDisplay:10.37 W/m2 CLR
05:59 11.3 °C 9.6 °C 1012.4 hPa Calm     89% 0.0 mm WeatherDisplay:10.37 W/m2 CLR
06:04 11.3 °C 9.6 °C 1012.4 hPa Calm     89% 0.0 mm WeatherDisplay:10.37 W/m2 CLR
06:09 11.3 °C 9.6 °C 1012.4 hPa Calm     89% 0.0 mm WeatherDisplay:10.37 W/m2 CLR
06:14 11.3 °C 9.6 °C 1012.4 hPa Calm     89% 0.0 mm WeatherDisplay:10.37 W/m2 CLR
06:19 11.3 °C 9.6 °C 1012.4 hPa Calm     89% 0.0 mm WeatherDisplay:10.37 W/m2 CLR
06:24 11.3 °C 9.6 °C 1012.8 hPa Calm     89% 0.0 mm WeatherDisplay:10.37 W/m2 CLR
06:29 11.3 °C 9.6 °C 1012.8 hPa Calm     89% 0.0 mm WeatherDisplay:10.37 W/m2 CLR
06:34 11.3 °C 9.6 °C 1012.8 hPa Calm     89% 0.0 mm WeatherDisplay:10.37 W/m2 CLR
06:39 11.3 °C 9.6 °C 1012.8 hPa Calm     89% 0.0 mm WeatherDisplay:10.37 W/m2 CLR
06:44 11.2 °C 9.5 °C 1012.8 hPa Calm     89% 0.0 mm WeatherDisplay:10.37 W/m2 CLR
06:49 11.2 °C 9.5 °C 1012.8 hPa Calm     89% 0.0 mm WeatherDisplay:10.37 W/m2 CLR
06:54 11.2 °C 9.5 °C 1013.1 hPa Calm     89% 0.0 mm WeatherDisplay:10.37 W/m2 CLR
06:59 11.2 °C 9.5 °C 1013.1 hPa Calm     89% 0.0 mm WeatherDisplay:10.37 W/m2 CLR
07:04 11.2 °C 9.7 °C 1013.1 hPa Calm     90% 0.0 mm WeatherDisplay:10.37 W/m2 CLR
07:09 11.2 °C 9.7 °C 1013.1 hPa Calm     90% 0.0 mm WeatherDisplay:10.37 W/m2 CLR
07:14 11.2 °C 9.7 °C 1013.1 hPa Calm     90% 0.0 mm WeatherDisplay:10.37 W/m2 CLR
07:19 11.3 °C 9.7 °C 1013.1 hPa Calm     90% 0.0 mm WeatherDisplay:10.37 W/m2 CLR
07:24 11.3 °C 9.8 °C 1013.1 hPa Calm     90% 0.0 mm WeatherDisplay:10.37 W/m2 CLR
07:29 11.3 °C 9.8 °C 1013.1 hPa Calm     90% 0.0 mm WeatherDisplay:10.37 W/m2 CLR
07:34 11.4 °C 9.8 °C 1013.1 hPa Calm     90% 0.0 mm WeatherDisplay:10.37 W/m2 CLR
07:39 11.4 °C 9.7 °C 1013.1 hPa Calm     89% 0.0 mm WeatherDisplay:10.37 W/m2 CLR
07:40 11.4 °C 9.7 °C 1013.1 hPa Calm     89% 0.0 mm WeatherDisplay:10.37 W/m2 CLR
07:45 11.4 °C 9.7 °C 1013.1 hPa Calm     89% 0.0 mm WeatherDisplay:10.37 W/m2 CLR
07:50 11.5 °C 9.7 °C 1013.1 hPa Calm     89% 0.0 mm WeatherDisplay:10.37 W/m2 CLR
07:55 11.6 °C 9.6 °C 1013.1 hPa Calm     88% 0.0 mm WeatherDisplay:10.37 W/m2 CLR
08:00 11.6 °C 9.6 °C 1013.4 hPa Calm     88% 0.0 mm WeatherDisplay:10.37 W/m2 CLR
08:05 11.7 °C 9.7 °C 1013.4 hPa Calm     88% 0.0 mm WeatherDisplay:10.37 W/m2 CLR
08:10 11.7 °C 9.6 °C 1013.4 hPa Calm     87% 0.0 mm WeatherDisplay:10.37 W/m2 CLR
08:15 11.8 °C 9.7 °C 1013.4 hPa Calm     87% 0.0 mm WeatherDisplay:10.37 W/m2 CLR
08:20 11.9 °C 9.8 °C 1013.4 hPa Calm     87% 0.0 mm WeatherDisplay:10.37 W/m2 CLR
08:25 12.1 °C 9.8 °C 1013.4 hPa North 1.9 km/h   86% 0.0 mm WeatherDisplay:10.37 W/m2 CLR
08:30 12.2 °C 9.9 °C 1013.4 hPa Calm     86% 0.0 mm WeatherDisplay:10.37 W/m2 CLR
08:35 12.4 °C 9.9 °C 1013.4 hPa Calm   0.3 km/h 85% 0.0 mm WeatherDisplay:10.37 W/m2 CLR
08:36 12.4 °C 10.0 °C 1013.4 hPa North 1.9 km/h   85% 0.0 mm WeatherDisplay:10.37 W/m2 CLR
08:41 12.7 °C 10.1 °C 1013.4 hPa Calm     84% 0.0 mm WeatherDisplay:10.37 W/m2 CLR
08:46 12.8 °C 10.0 °C 1013.4 hPa Calm   0.2 km/h 83% 0.0 mm WeatherDisplay:10.37 W/m2 CLR
08:51 12.9 °C 9.9 °C 1013.4 hPa Calm     82% 0.0 mm WeatherDisplay:10.37 W/m2 CLR
08:56 13.1 °C 9.7 °C 1013.4 hPa Calm     80% 0.0 mm WeatherDisplay:10.37 W/m2 CLR
09:01 13.3 °C 9.3 °C 1013.4 hPa Calm     77% 0.0 mm WeatherDisplay:10.37 W/m2 CLR
09:06 13.5 °C 9.6 °C 1013.4 hPa Calm   0.2 km/h 77% 0.0 mm WeatherDisplay:10.37 W/m2 CLR
09:11 13.7 °C 9.5 °C 1013.4 hPa Calm     76% 0.0 mm WeatherDisplay:10.37 W/m2 CLR
09:16 14.0 °C 9.4 °C 1013.4 hPa West 3.7 km/h 3.7 km/h 74% 0.0 mm WeatherDisplay:10.37 W/m2 CLR
09:21 14.4 °C 9.7 °C 1013.4 hPa West 1.9 km/h 1.9 km/h 73% 0.0 mm WeatherDisplay:10.37 W/m2 CLR
09:27 14.8 °C 9.6 °C 1013.4 hPa WNW 3.7 km/h 3.7 km/h 71% 0.0 mm WeatherDisplay:10.37 W/m2 CLR
09:32 15.1 °C 9.9 °C 1013.4 hPa NNW 5.6 km/h 5.6 km/h 71% 0.0 mm WeatherDisplay:10.37 W/m2 CLR
09:37 15.5 °C 8.9 °C 1013.4 hPa South 1.9 km/h 1.9 km/h 65% 0.0 mm WeatherDisplay:10.37 W/m2 CLR
09:42 15.8 °C 8.8 °C 1013.8 hPa North 1.6 km/h 1.6 km/h 63% 0.0 mm WeatherDisplay:10.37 W/m2 CLR
09:47 16.2 °C 8.6 °C 1013.4 hPa ESE 5.6 km/h 5.6 km/h 61% 0.0 mm WeatherDisplay:10.37 W/m2 CLR
09:52 16.4 °C 8.9 °C 1013.8 hPa SSE 3.7 km/h 3.7 km/h 61% 0.0 mm WeatherDisplay:10.37 W/m2 CLR
09:57 16.7 °C 9.1 °C 1013.4 hPa NNW 3.7 km/h 3.7 km/h 61% 0.0 mm WeatherDisplay:10.37 W/m2 CLR
10:02 16.8 °C 9.0 °C 1013.4 hPa ESE 1.9 km/h 1.9 km/h 60% 0.0 mm WeatherDisplay:10.37 W/m2 CLR
10:07 17.0 °C 8.9 °C 1013.4 hPa West 3.7 km/h 3.7 km/h 59% 0.0 mm WeatherDisplay:10.37 W/m2 CLR
10:12 17.2 °C 8.8 °C 1013.8 hPa West 5.6 km/h 5.6 km/h 58% 0.0 mm WeatherDisplay:10.37 W/m2 CLR
10:17 17.3 °C 8.4 °C 1013.8 hPa SE 3.7 km/h   56% 0.0 mm WeatherDisplay:10.37 W/m2 CLR
10:22 17.4 °C 8.3 °C 1013.8 hPa NE 5.6 km/h 5.6 km/h 55% 0.0 mm WeatherDisplay:10.37 W/m2 CLR
10:27 17.6 °C 8.9 °C 1013.8 hPa NNE 6.4 km/h 6.4 km/h 57% 0.0 mm WeatherDisplay:10.37 W/m2 CLR
10:32 17.7 °C 8.2 °C 1013.8 hPa East 7.4 km/h 7.4 km/h 54% 0.0 mm WeatherDisplay:10.37 W/m2 CLR
10:37 17.7 °C 8.8 °C 1013.8 hPa WNW 3.7 km/h 3.7 km/h 56% 0.0 mm WeatherDisplay:10.37 W/m2 CLR
10:42 17.8 °C 8.9 °C 1013.4 hPa West 14.5 km/h 14.5 km/h 56% 0.0 mm WeatherDisplay:10.37 W/m2 CLR
10:47 18.1 °C 8.3 °C 1013.8 hPa NNW 5.6 km/h 5.6 km/h 53% 0.0 mm WeatherDisplay:10.37 W/m2 CLR
10:53 18.2 °C 8.2 °C 1013.8 hPa WSW 7.4 km/h 7.4 km/h 52% 0.0 mm WeatherDisplay:10.37 W/m2 CLR
10:58 18.3 °C 8.8 °C 1013.8 hPa North 3.7 km/h 3.7 km/h 54% 0.0 mm WeatherDisplay:10.37 W/m2 CLR
11:03 18.4 °C 8.6 °C 1013.8 hPa SSW 7.4 km/h 7.4 km/h 53% 0.0 mm WeatherDisplay:10.37 W/m2 CLR
11:08 18.5 °C 8.2 °C 1013.8 hPa NW 5.6 km/h 5.6 km/h 51% 0.0 mm WeatherDisplay:10.37 W/m2 CLR
11:13 18.6 °C 8.0 °C 1013.8 hPa NNW 11.1 km/h 11.1 km/h 50% 0.0 mm WeatherDisplay:10.37 W/m2 CLR
11:18 18.7 °C 8.1 °C 1013.8 hPa West 18.5 km/h 18.5 km/h 50% 0.0 mm WeatherDisplay:10.37 W/m2 CLR
11:23 18.8 °C 8.1 °C 1013.8 hPa NW 5.6 km/h 5.6 km/h 50% 0.0 mm WeatherDisplay:10.37 W/m2 CLR
11:28 18.9 °C 7.9 °C 1013.8 hPa West 6.4 km/h 6.4 km/h 49% 0.0 mm WeatherDisplay:10.37 W/m2 CLR
11:33 19.1 °C 8.1 °C 1013.8 hPa NNW 9.3 km/h 9.3 km/h 49% 0.0 mm WeatherDisplay:10.37 W/m2 CLR
11:38 19.2 °C 7.9 °C 1013.8 hPa West 9.3 km/h 9.3 km/h 48% 0.0 mm WeatherDisplay:10.37 W/m2 CLR
11:48 19.6 °C 8.2 °C 1013.4 hPa NW 8.0 km/h 8.0 km/h 48% 0.0 mm WeatherDisplay:10.37 W/m2 CLR
11:53 19.8 °C 8.1 °C 1013.4 hPa WNW 3.7 km/h 3.7 km/h 47% 0.0 mm WeatherDisplay:10.37 W/m2 CLR
11:58 19.9 °C 8.6 °C 1013.4 hPa North 19.3 km/h 19.3 km/h 48% 0.0 mm WeatherDisplay:10.37 W/m2 CLR
12:03 20.2 °C 8.2 °C 1013.4 hPa West 16.7 km/h 16.7 km/h 46% 0.0 mm WeatherDisplay:10.37 W/m2 CLR
12:08 20.4 °C 8.1 °C 1013.4 hPa WNW 6.4 km/h 6.4 km/h 45% 0.0 mm WeatherDisplay:10.37 W/m2 CLR
12:13 20.5 °C 8.2 °C 1013.4 hPa NW 3.7 km/h 3.7 km/h 45% 0.0 mm WeatherDisplay:10.37 W/m2 CLR
12:18 20.6 °C 8.3 °C 1013.4 hPa WSW 5.6 km/h 5.6 km/h 45% 0.0 mm WeatherDisplay:10.37 W/m2 CLR
12:24 20.8 °C 8.1 °C 1013.4 hPa West 5.6 km/h 5.6 km/h 44% 0.0 mm WeatherDisplay:10.37 W/m2 CLR
12:29 20.8 °C 7.8 °C 1013.4 hPa NW 5.6 km/h 5.6 km/h 43% 0.0 mm WeatherDisplay:10.37 W/m2 CLR
12:34 21.0 °C 7.9 °C 1013.4 hPa SW 9.3 km/h 9.3 km/h 43% 0.0 mm WeatherDisplay:10.37 W/m2 CLR
12:39 21.1 °C 8.0 °C 1013.4 hPa NNE 5.6 km/h 5.6 km/h 43% 0.0 mm WeatherDisplay:10.37 W/m2 CLR
12:44 21.1 °C 7.7 °C 1013.4 hPa SSE 5.6 km/h 5.6 km/h 42% 0.0 mm WeatherDisplay:10.37 W/m2 CLR
12:49 21.1 °C 7.7 °C 1013.4 hPa West 5.6 km/h 5.6 km/h 42% 0.0 mm WeatherDisplay:10.37 W/m2 CLR
12:54 21.2 °C 7.7 °C 1013.4 hPa WNW 7.4 km/h 7.4 km/h 42% 0.0 mm WeatherDisplay:10.37 W/m2 CLR
12:59 21.2 °C 7.7 °C 1013.4 hPa North 5.6 km/h 5.6 km/h 42% 0.0 mm WeatherDisplay:10.37 W/m2 CLR
13:04 21.7 °C 8.6 °C 1013.4 hPa North 3.7 km/h 3.7 km/h 43% 0.0 mm WeatherDisplay:10.37 W/m2 CLR
13:09 21.8 °C 7.6 °C 1013.4 hPa NNE 14.8 km/h 14.8 km/h 40% 0.0 mm WeatherDisplay:10.37 W/m2 CLR
13:14 22.1 °C 8.2 °C 1013.4 hPa NNW 16.7 km/h 16.7 km/h 41% 0.0 mm WeatherDisplay:10.37 W/m2 CLR
13:19 22.1 °C 7.9 °C 1013.1 hPa SW 5.6 km/h 5.6 km/h 40% 0.0 mm WeatherDisplay:10.37 W/m2 CLR
13:24 22.2 °C 8.3 °C 1013.4 hPa West 3.7 km/h 3.7 km/h 41% 0.0 mm WeatherDisplay:10.37 W/m2 CLR
13:29 22.4 °C 8.5 °C 1013.4 hPa WSW 5.6 km/h 5.6 km/h 41% 0.0 mm WeatherDisplay:10.37 W/m2 CLR
13:34 22.5 °C 7.8 °C 1013.4 hPa WNW 1.9 km/h 1.9 km/h 39% 0.0 mm WeatherDisplay:10.37 W/m2 CLR
13:39 22.6 °C 7.9 °C 1013.4 hPa West 1.9 km/h 1.9 km/h 39% 0.0 mm WeatherDisplay:10.37 W/m2 CLR
13:44 22.6 °C 7.9 °C 1013.4 hPa West 3.7 km/h 3.7 km/h 39% 0.0 mm WeatherDisplay:10.37 W/m2 CLR
13:49 22.7 °C 8.0 °C 1013.4 hPa NNW 9.3 km/h 9.3 km/h 39% 0.0 mm WeatherDisplay:10.37 W/m2 CLR
13:54 22.7 °C 7.6 °C 1013.4 hPa NW 3.7 km/h 3.7 km/h 38% 0.0 mm WeatherDisplay:10.37 W/m2 CLR
13:59 22.8 °C 7.8 °C 1013.1 hPa South 16.7 km/h 16.7 km/h 38% 0.0 mm WeatherDisplay:10.37 W/m2 CLR
14:04 22.8 °C 7.7 °C 1013.1 hPa NNW 3.7 km/h 3.7 km/h 38% 0.0 mm WeatherDisplay:10.37 W/m2 CLR
14:09 22.5 °C 7.4 °C 1013.1 hPa WNW 3.7 km/h 3.7 km/h 38% 0.0 mm WeatherDisplay:10.37 W/m2 CLR
14:14 22.6 °C 7.5 °C 1013.1 hPa WSW 9.3 km/h 9.3 km/h 38% 0.0 mm WeatherDisplay:10.37 W/m2 CLR
14:19 22.7 °C 7.6 °C 1013.1 hPa North 18.5 km/h 18.5 km/h 38% 0.0 mm WeatherDisplay:10.37 W/m2 CLR
14:24 22.8 °C 7.7 °C 1013.1 hPa North 1.9 km/h   38% 0.0 mm WeatherDisplay:10.37 W/m2 CLR
14:29 22.8 °C 7.8 °C 1013.1 hPa North 5.6 km/h 5.6 km/h 38% 0.0 mm WeatherDisplay:10.37 W/m2 CLR
14:35 22.7 °C 7.2 °C 1013.1 hPa NNW 16.7 km/h 16.7 km/h 37% 0.0 mm WeatherDisplay:10.37 W/m2 CLR
14:40 22.7 °C 7.6 °C 1013.1 hPa NNW 3.7 km/h 3.7 km/h 38% 0.0 mm WeatherDisplay:10.37 W/m2 CLR
14:45 22.6 °C 7.2 °C 1013.1 hPa WNW 1.9 km/h 1.9 km/h 37% 0.0 mm WeatherDisplay:10.37 W/m2 CLR
14:50 22.7 °C 7.3 °C 1013.1 hPa NW 11.1 km/h 11.1 km/h 37% 0.0 mm WeatherDisplay:10.37 W/m2 CLR
14:55 22.9 °C 7.4 °C 1013.1 hPa NE 3.7 km/h 3.7 km/h 37% 0.0 mm WeatherDisplay:10.37 W/m2 CLR
15:00 23.1 °C 7.6 °C 1013.1 hPa WSW 3.7 km/h 3.7 km/h 37% 0.0 mm WeatherDisplay:10.37 W/m2 CLR
15:05 22.9 °C 7.1 °C 1013.1 hPa SW 1.9 km/h 2.6 km/h 36% 0.0 mm WeatherDisplay:10.37 W/m2 CLR
15:10 22.9 °C 7.1 °C 1013.1 hPa SSE 3.7 km/h 3.7 km/h 36% 0.0 mm WeatherDisplay:10.37 W/m2 CLR
15:15 22.9 °C 7.1 °C 1013.1 hPa SSE 1.9 km/h 1.9 km/h 36% 0.0 mm WeatherDisplay:10.37 W/m2 CLR
15:20 23.0 °C 7.1 °C 1013.1 hPa WNW 4.8 km/h 4.8 km/h 36% 0.0 mm WeatherDisplay:10.37 W/m2 CLR
15:25 22.9 °C 7.0 °C 1013.1 hPa WSW 5.6 km/h 5.6 km/h 36% 0.0 mm WeatherDisplay:10.37 W/m2 CLR
15:30 22.6 °C 6.8 °C 1012.8 hPa WSW 3.7 km/h 3.7 km/h 36% 0.0 mm WeatherDisplay:10.37 W/m2 CLR
15:35 22.6 °C 6.7 °C 1012.8 hPa West 1.9 km/h 1.9 km/h 36% 0.0 mm WeatherDisplay:10.37 W/m2 CLR
15:40 22.6 °C 7.2 °C 1012.8 hPa NNE 5.6 km/h 5.6 km/h 37% 0.0 mm WeatherDisplay:10.37 W/m2 CLR
15:45 22.7 °C 6.4 °C 1012.8 hPa NW 9.3 km/h 9.3 km/h 35% 0.0 mm WeatherDisplay:10.37 W/m2 CLR
15:50 22.6 °C 6.8 °C 1012.8 hPa ESE 3.7 km/h 3.7 km/h 36% 0.0 mm WeatherDisplay:10.37 W/m2 CLR
15:55 22.3 °C 6.1 °C 1012.8 hPa SSW 3.2 km/h 3.2 km/h 35% 0.0 mm WeatherDisplay:10.37 W/m2 CLR
16:00 22.3 °C 6.5 °C 1012.8 hPa NNW 5.6 km/h 5.6 km/h 36% 0.0 mm WeatherDisplay:10.37 W/m2 CLR
16:05 22.1 °C 5.9 °C 1012.8 hPa WNW 11.1 km/h 11.1 km/h 35% 0.0 mm WeatherDisplay:10.37 W/m2 CLR
16:10 22.1 °C 5.9 °C 1012.8 hPa North 5.6 km/h 5.6 km/h 35% 0.0 mm WeatherDisplay:10.37 W/m2 CLR
16:15 22.1 °C 5.5 °C 1012.8 hPa ESE 3.7 km/h 3.7 km/h 34% 0.0 mm WeatherDisplay:10.37 W/m2 CLR
16:20 22.0 °C 5.4 °C 1012.8 hPa NE 7.4 km/h 7.4 km/h 34% 0.0 mm WeatherDisplay:10.37 W/m2 CLR
16:25 22.0 °C 5.4 °C 1012.8 hPa WSW 3.7 km/h 3.7 km/h 34% 0.0 mm WeatherDisplay:10.37 W/m2 CLR
16:30 22.1 °C 5.9 °C 1012.8 hPa ESE 3.7 km/h 3.7 km/h 35% 0.0 mm WeatherDisplay:10.37 W/m2 CLR
16:35 22.1 °C 5.4 °C 1012.8 hPa North 5.6 km/h 5.6 km/h 34% 0.0 mm WeatherDisplay:10.37 W/m2 CLR
16:40 22.1 °C 5.9 °C 1012.8 hPa WNW 3.7 km/h 3.7 km/h 35% 0.0 mm WeatherDisplay:10.37 W/m2 CLR
16:45 22.0 °C 5.8 °C 1012.8 hPa WSW 1.9 km/h   35% 0.0 mm WeatherDisplay:10.37 W/m2 CLR
16:50 21.9 °C 5.3 °C 1012.8 hPa WNW 9.7 km/h 9.7 km/h 34% 0.0 mm WeatherDisplay:10.37 W/m2 CLR
16:55 21.9 °C 5.3 °C 1013.1 hPa SSE 5.6 km/h 5.6 km/h 34% 0.0 mm WeatherDisplay:10.37 W/m2 CLR
17:00 21.9 °C 5.8 °C 1013.1 hPa North 1.9 km/h 1.9 km/h 35% 0.0 mm WeatherDisplay:10.37 W/m2 CLR
17:05 21.9 °C 5.7 °C 1012.8 hPa NW 3.7 km/h 3.7 km/h 35% 0.0 mm WeatherDisplay:10.37 W/m2 CLR
17:09 21.8 °C 5.7 °C 1013.1 hPa WSW 5.6 km/h 5.6 km/h 35% 0.0 mm WeatherDisplay:10.37 W/m2 CLR
17:14 21.8 °C 5.6 °C 1013.1 hPa North 5.6 km/h 5.6 km/h 35% 0.0 mm WeatherDisplay:10.37 W/m2 CLR
17:19 21.8 °C 5.6 °C 1012.8 hPa North 7.4 km/h 7.4 km/h 35% 0.0 mm WeatherDisplay:10.37 W/m2 CLR
17:24 21.7 °C 6.0 °C 1012.8 hPa North 1.9 km/h   36% 0.0 mm WeatherDisplay:10.37 W/m2 CLR
17:29 21.7 °C 5.9 °C 1012.8 hPa North 3.2 km/h 3.2 km/h 36% 0.0 mm WeatherDisplay:10.37 W/m2 CLR
17:34 21.6 °C 5.5 °C 1012.8 hPa WSW 6.4 km/h 6.4 km/h 35% 0.0 mm WeatherDisplay:10.37 W/m2 CLR
17:39 21.6 °C 5.4 °C 1012.8 hPa NNW 14.8 km/h 14.8 km/h 35% 0.0 mm WeatherDisplay:10.37 W/m2 CLR
17:44 21.5 °C 5.8 °C 1013.1 hPa NNE 7.4 km/h 7.4 km/h 36% 0.0 mm WeatherDisplay:10.37 W/m2 CLR
17:49 21.4 °C 5.7 °C 1013.1 hPa SSE 5.6 km/h 5.6 km/h 36% 0.0 mm WeatherDisplay:10.37 W/m2 CLR
17:54 21.4 °C 5.3 °C 1013.1 hPa NNW 5.6 km/h 5.6 km/h 35% 0.0 mm WeatherDisplay:10.37 W/m2 CLR
17:59 21.4 °C 5.3 °C 1013.1 hPa North 9.7 km/h 9.7 km/h 35% 0.0 mm WeatherDisplay:10.37 W/m2 CLR
18:04 21.3 °C 5.7 °C 1013.1 hPa NE 3.7 km/h   36% 0.0 mm WeatherDisplay:10.37 W/m2 CLR
18:09 21.2 °C 5.6 °C 1013.1 hPa North 5.6 km/h 5.6 km/h 36% 0.0 mm WeatherDisplay:10.37 W/m2 CLR
18:14 21.1 °C 5.4 °C 1013.1 hPa North 1.9 km/h 1.9 km/h 36% 0.0 mm WeatherDisplay:10.37 W/m2 CLR
18:19 20.9 °C 5.3 °C 1013.1 hPa WNW 3.7 km/h 3.7 km/h 36% 0.0 mm WeatherDisplay:10.37 W/m2 CLR
18:24 20.9 °C 5.7 °C 1013.1 hPa North 5.6 km/h 5.6 km/h 37% 0.0 mm WeatherDisplay:10.37 W/m2 CLR
18:29 20.8 °C 5.9 °C 1013.1 hPa North 1.9 km/h 1.9 km/h 38% 0.0 mm WeatherDisplay:10.37 W/m2 CLR
18:34 20.6 °C 5.4 °C 1013.1 hPa North 3.7 km/h 3.7 km/h 37% 0.0 mm WeatherDisplay:10.37 W/m2 CLR
18:40 20.4 °C 6.4 °C 1013.1 hPa NE 3.7 km/h 3.7 km/h 40% 0.0 mm WeatherDisplay:10.37 W/m2 CLR
18:45 20.3 °C 5.9 °C 1013.1 hPa WNW 5.6 km/h 5.6 km/h 39% 0.0 mm WeatherDisplay:10.37 W/m2 CLR
18:50 20.1 °C 6.1 °C 1013.4 hPa WNW 1.9 km/h 1.9 km/h 40% 0.0 mm WeatherDisplay:10.37 W/m2 CLR
18:55 19.9 °C 6.3 °C 1013.4 hPa Calm   0.2 km/h 41% 0.0 mm WeatherDisplay:10.37 W/m2 CLR
19:00 19.8 °C 5.8 °C 1013.4 hPa WNW 1.9 km/h   40% 0.0 mm WeatherDisplay:10.37 W/m2 CLR
19:05 19.7 °C 6.4 °C 1013.4 hPa Calm     42% 0.0 mm WeatherDisplay:10.37 W/m2 CLR
19:10 19.4 °C 5.8 °C 1013.4 hPa NW 3.7 km/h 3.7 km/h 41% 0.0 mm WeatherDisplay:10.37 W/m2 CLR
19:15 19.3 °C 6.1 °C 1013.4 hPa NW 1.9 km/h   42% 0.0 mm WeatherDisplay:10.37 W/m2 CLR
19:20 19.0 °C 6.1 °C 1013.4 hPa Calm   0.2 km/h 43% 0.0 mm WeatherDisplay:10.37 W/m2 CLR
19:25 18.8 °C 5.9 °C 1013.4 hPa Calm     43% 0.0 mm WeatherDisplay:10.37 W/m2 CLR
19:30 18.6 °C 6.1 °C 1013.4 hPa NNW 1.6 km/h   44% 0.0 mm WeatherDisplay:10.37 W/m2 CLR
19:35 18.4 °C 5.9 °C 1013.4 hPa Calm     44% 0.0 mm WeatherDisplay:10.37 W/m2 CLR
19:40 18.2 °C 6.1 °C 1013.4 hPa Calm     45% 0.0 mm WeatherDisplay:10.37 W/m2 CLR
19:45 17.9 °C 5.8 °C 1013.8 hPa Calm     45% 0.0 mm WeatherDisplay:10.37 W/m2 CLR
19:50 17.8 °C 5.4 °C 1013.8 hPa Calm     44% 0.0 mm WeatherDisplay:10.37 W/m2 CLR
19:55 17.7 °C 5.3 °C 1013.8 hPa Calm     44% 0.0 mm WeatherDisplay:10.37 W/m2 CLR
20:00 17.6 °C 5.5 °C 1013.8 hPa Calm     45% 0.0 mm WeatherDisplay:10.37 W/m2 CLR
20:05 17.4 °C 5.4 °C 1013.8 hPa Calm     45% 0.0 mm WeatherDisplay:10.37 W/m2 CLR
20:10 17.3 °C 5.3 °C 1013.8 hPa Calm     45% 0.0 mm WeatherDisplay:10.37 W/m2 CLR
20:20 17.2 °C 5.2 °C 1013.8 hPa Calm     45% 0.0 mm WeatherDisplay:10.37 W/m2 CLR
20:21 17.2 °C 5.1 °C 1013.8 hPa Calm     45% 0.0 mm WeatherDisplay:10.37 W/m2 CLR
20:23 17.2 °C 5.1 °C 1013.8 hPa NNW 1.9 km/h   45% 0.0 mm WeatherDisplay:10.37 W/m2 CLR
20:26 17.2 °C 4.8 °C 1013.8 hPa Calm     44% 0.0 mm WeatherDisplay:10.37 W/m2 CLR
20:27 17.1 °C 4.7 °C 1013.8 hPa Calm     44% 0.0 mm WeatherDisplay:10.37 W/m2 CLR
20:29 17.1 °C 4.7 °C 1013.8 hPa NNW 1.9 km/h   44% 0.0 mm WeatherDisplay:10.37 W/m2 CLR
20:34 17.1 °C 4.4 °C 1013.8 hPa North 3.7 km/h   43% 0.0 mm WeatherDisplay:10.37 W/m2 CLR
20:39 17.2 °C 4.1 °C 1014.1 hPa North 1.9 km/h 1.9 km/h 42% 0.0 mm WeatherDisplay:10.37 W/m2 CLR
20:44 17.2 °C 4.5 °C 1014.1 hPa Calm     43% 0.0 mm WeatherDisplay:10.37 W/m2 CLR
20:49 17.3 °C 4.6 °C 1014.1 hPa North 1.9 km/h   43% 0.0 mm WeatherDisplay:10.37 W/m2 CLR
20:59 17.2 °C 4.1 °C 1014.1 hPa Calm     42% 0.0 mm WeatherDisplay:10.37 W/m2 CLR
21:04 17.1 °C 4.4 °C 1014.1 hPa Calm     43% 0.0 mm WeatherDisplay:10.37 W/m2 CLR
21:10 16.9 °C 3.9 °C 1014.1 hPa Calm     42% 0.0 mm WeatherDisplay:10.37 W/m2 CLR
21:15 16.8 °C 4.2 °C 1014.1 hPa Calm     43% 0.0 mm WeatherDisplay:10.37 W/m2 CLR
21:20 16.8 °C 4.1 °C 1014.1 hPa Calm     43% 0.0 mm WeatherDisplay:10.37 W/m2 CLR
21:25 16.7 °C 3.7 °C 1014.1 hPa Calm     42% 0.0 mm WeatherDisplay:10.37 W/m2 CLR
21:30 16.7 °C 4.0 °C 1014.1 hPa Calm     43% 0.0 mm WeatherDisplay:10.37 W/m2 CLR
21:35 16.5 °C 4.5 °C 1014.4 hPa Calm     45% 0.0 mm WeatherDisplay:10.37 W/m2 CLR
21:40 16.3 °C 4.4 °C 1014.1 hPa Calm     45% 0.0 mm WeatherDisplay:10.37 W/m2 CLR
21:45 16.2 °C 4.3 °C 1014.4 hPa Calm     45% 0.0 mm WeatherDisplay:10.37 W/m2 CLR
21:50 16.1 °C 4.1 °C 1014.4 hPa Calm     45% 0.0 mm WeatherDisplay:10.37 W/m2 CLR
21:55 16.1 °C 4.4 °C 1014.4 hPa Calm     46% 0.0 mm WeatherDisplay:10.37 W/m2 CLR
22:01 16.1 °C 4.1 °C 1014.4 hPa Calm     45% 0.0 mm WeatherDisplay:10.37 W/m2 CLR
22:06 16.0 °C 4.1 °C 1014.4 hPa Calm     45% 0.0 mm WeatherDisplay:10.37 W/m2 CLR
22:11 15.9 °C 4.0 °C 1014.4 hPa Calm     45% 0.0 mm WeatherDisplay:10.37 W/m2 CLR
22:16 15.9 °C 3.9 °C 1014.4 hPa Calm     45% 0.0 mm WeatherDisplay:10.37 W/m2 CLR
22:21 15.8 °C 3.9 °C 1014.4 hPa Calm     45% 0.0 mm WeatherDisplay:10.37 W/m2 CLR
22:26 15.8 °C 3.8 °C 1014.8 hPa Calm     45% 0.0 mm WeatherDisplay:10.37 W/m2 CLR
22:31 15.7 °C 4.1 °C 1014.8 hPa Calm     46% 0.0 mm WeatherDisplay:10.37 W/m2 CLR
22:36 15.6 °C 4.0 °C 1014.8 hPa Calm     46% 0.0 mm WeatherDisplay:10.37 W/m2 CLR
22:41 15.5 °C 3.9 °C 1014.8 hPa Calm     46% 0.0 mm WeatherDisplay:10.37 W/m2 CLR
22:46 15.5 °C 4.2 °C 1014.8 hPa Calm     47% 0.0 mm WeatherDisplay:10.37 W/m2 CLR
22:51 15.4 °C 4.2 °C 1014.8 hPa Calm     47% 0.0 mm WeatherDisplay:10.37 W/m2 CLR
22:56 15.3 °C 4.7 °C 1014.8 hPa Calm     49% 0.0 mm WeatherDisplay:10.37 W/m2 CLR
23:01 15.2 °C 4.6 °C 1014.8 hPa Calm     49% 0.0 mm WeatherDisplay:10.37 W/m2 CLR
23:06 15.2 °C 4.5 °C 1014.8 hPa Calm     49% 0.0 mm WeatherDisplay:10.37 W/m2 CLR
23:11 15.0 °C 4.4 °C 1014.8 hPa Calm     49% 0.0 mm WeatherDisplay:10.37 W/m2 CLR
23:16 14.9 °C 4.6 °C 1015.1 hPa Calm     50% 0.0 mm WeatherDisplay:10.37 W/m2 CLR
23:21 14.8 °C 4.4 °C 1015.1 hPa Calm     50% 0.0 mm WeatherDisplay:10.37 W/m2 CLR
23:26 14.7 °C 4.3 °C 1015.1 hPa Calm     50% 0.0 mm WeatherDisplay:10.37 W/m2 CLR
23:31 14.6 °C 4.8 °C 1015.1 hPa Calm     52% 0.0 mm WeatherDisplay:10.37 W/m2 CLR
23:36 14.4 °C 4.4 °C 1015.1 hPa Calm     51% 0.0 mm WeatherDisplay:10.37 W/m2 CLR
23:41 14.4 °C 4.4 °C 1015.1 hPa Calm     51% 0.0 mm WeatherDisplay:10.37 W/m2 CLR
23:46 14.3 °C 4.6 °C 1015.1 hPa Calm     52% 0.0 mm WeatherDisplay:10.37 W/m2 CLR
23:51 14.3 °C 4.6 °C 1015.1 hPa Calm     52% 0.0 mm WeatherDisplay:10.37 W/m2 CLR
23:56 14.3 °C 4.9 °C 1015.1 hPa Calm     53% 0.0 mm WeatherDisplay:10.37 W/m2 CLR
Indianola, WA, USA
Compliments of Weather Underground - 3 mb